CST,Max TemperatureF,Mean TemperatureF,Min TemperatureF,Max Dew PointF,MeanDew PointF,Min DewpointF,Max Humidity, Mean Humidity, Min Humidity, Max Sea Level PressureIn, Mean Sea Level PressureIn, Min Sea Level PressureIn, Max VisibilityMiles, Mean VisibilityMiles, Min VisibilityMiles, Max Wind SpeedMPH, Mean Wind SpeedMPH, Max Gust SpeedMPH,PrecipitationIn, CloudCover, Events, WindDirDegrees
2012-11-1,35,30,26,32,27,16,100,78,56,29.94,29.84,29.78,10,10,2,17,7,24,0.00,7,Snow,329
2012-11-2,35,30,24,23,21,19,80,68,52,30.16,30.07,29.94,10,10,10,14,9,20,0.00,4,,13
2012-11-3,35,28,19,23,22,19,100,77,56,30.23,30.20,30.17,10,10,7,9,5,,0.00,4,,50
2012-11-4,35,26,17,27,21,16,100,84,52,30.24,30.21,30.17,10,10,3,7,1,,0.00,3,,42
2012-11-5,33,24,14,25,21,14,100,82,60,30.22,30.15,30.01,10,10,4,8,2,,0.00,4,,172
2012-11-6,32,30,28,32,30,23,100,93,75,30.00,29.85,29.77,10,6,1,9,5,,0.01,8,Snow,169
2012-11-7,37,34,32,34,33,32,100,97,87,30.07,30.02,29.90,10,7,0,6,1,,0.00,8,Fog,232
2012-11-8,46,39,32,34,32,30,100,85,57,30.07,30.00,29.91,10,10,7,13,3,20,0.00,6,,200
2012-11-9,41,37,33,36,34,30,100,87,76,30.11,30.08,30.03,10,10,7,12,4,18,0.00,8,,70
2012-11-10,51,41,32,52,40,30,100,98,87,30.11,29.85,29.67,10,5,1,14,9,26,0.06,8,Rain-Snow,125
2012-11-11,55,42,28,54,46,28,100,95,77,29.75,29.64,29.58,10,8,2,16,9,24,0.73,7,Rain-Snow,218
2012-11-12,28,24,19,27,16,10,93,78,63,30.12,29.89,29.75,10,8,0,21,13,28,0.00,8,Snow,256
2012-11-13,33,27,21,19,17,14,86,69,52,30.33,30.27,30.13,10,10,10,13,8,18,0.00,3,,236
2012-11-14,39,34,28,28,24,19,87,72,60,30.33,30.26,30.19,10,10,10,8,2,,0.00,4,Snow,191
2012-11-15,50,38,26,30,27,21,87,69,43,30.37,30.20,30.15,10,10,10,12,4,17,0.00,2,,246
2012-11-16,39,28,17,27,19,12,100,73,33,30.48,30.42,30.37,10,10,1,8,2,,0.00,1,,140
2012-11-17,48,40,32,34,32,27,100,83,54,30.41,30.36,30.33,10,5,2,10,5,17,0.00,4,,185
2012-11-18,51,42,32,32,30,27,93,65,38,30.33,30.25,30.19,10,8,4,12,5,18,0.00,2,,169
2012-11-19,55,46,37,36,32,28,76,62,41,30.20,30.11,30.04,10,10,10,9,4,16,0.00,6,,188
2012-11-20,51,40,28,37,33,28,100,84,54,30.11,30.08,30.04,10,6,0,7,1,,0.00,3,Fog,333
2012-11-21,51,38,24,41,33,25,100,85,50,30.09,29.95,29.82,10,6,0,13,2,17,0.00,2,Fog,203
2012-11-22,59,44,30,37,36,28,100,63,45,29.81,29.64,29.54,10,9,2,18,10,28,0.00,2,Snow,230
2012-11-23,30,26,21,25,18,14,86,79,74,30.12,29.90,29.61,10,5,0,25,17,36,0.00,8,Snow,309
2012-11-24,23,21,19,21,13,10,100,73,63,30.14,30.01,29.77,10,8,1,16,7,20,0.00,7,Snow,283
2012-11-25,26,24,21,21,19,14,100,83,68,29.97,29.81,29.71,10,9,1,16,7,23,0.00,8,Snow,279
2012-11-26,23,12,0,18,8,-6,92,77,63,30.25,30.16,29.97,10,9,4,12,7,16,0.00,6,Snow,294
2012-11-27,28,18,8,23,15,5,100,77,47,30.22,30.08,30.01,10,8,1,15,7,23,0.00,7,Snow,244
2012-11-28,24,22,19,19,15,10,86,74,59,30.22,30.13,30.07,10,9,2,12,9,18,0.00,4,Snow,268
2012-11-29,30,21,12,27,20,10,100,89,75,30.21,30.13,30.07,10,7,0,15,3,18,0.00,6,Fog,76
2012-11-30,30,26,23,30,24,12,100,92,63,30.22,30.19,30.13,10,8,1,13,8,,0.00,8,,111